BEIDOU-3 G1 (43683 NORAD) Tracking and Keplerian Element Data

This shows tracking and keplerian element data for the satellite.

Feedback or suggestion? Click here.




ElementValue
Catalog43683
NameBEIDOU-3 G1
Epoch Orbit268
Epoch Day194.17902824
Epoch Year2019
RAAN268.3233
Inclination2.5236
Eccentricity4.47E-05
Argument of Perigee205.3123
Mean Anonmoly26.1015
Mean Motion1.00272643
Decay Rate-2.52E-06
L11 43683U 18085A 19194.17902824 -.00000252 00000-0 00000+0 0 9992
L22 43683 2.5236 268.3233 0000447 205.3123 26.1015 1.00272643 2688

Live tracking and technical data element details for BEIDOU-3 G1 (NORAD 43683). BEIDOU-3 G1 can be tracked NOW for your location showing map with azimuth and elevation plus other details from your city location.

Track the satellite on the map from your city or location and see movement details for azimuth, elevation, latitude, longitude, range, height, and movement on the map or in text.







IsCatalogInMostPopularTable: catalog: 43683, numindb: 148
Update: records affected: 1



GetName: 43683 BEIDOU-3 G1

Hit Count: updated at: Wed, 17 Jul 2019 08:27:01 GMT